Powrót do katalogu

STARLINK-5119

AktywnyŁącznośćVLEO
NORAD 53986·PAYLOAD·🇺🇸 United States

Wystrzelony Oct 5, 2022 z Vandenberg Space Force Base

Loading…

Następne Przeloty (najbliższe 24 godziny)

TLE

ŚwieżeSource: CelesTrak SupGP

Epoka: Sep 15, 2026, 03:05 UTC

1 53986C 22125Y   26258.12895833 -.00031077  00000+0 -99884-3 0  2583
2 53986  53.1602  60.0722 0001296  71.6540  61.0442 15.31734211    14

Śledź STARLINK-5119 w czasie rzeczywistym z AllMySat

Download on the App Store